Weather Roundup
Issued by NWS Chicago, IL

Home | Current Version | Previous Version | Text Only | Print | Product List | Glossary Off
Versions: 1 2 3 4 5 6 7 8 9 10 11 12 13 14 15 16 17 18 19 20 21 22 23 24 25 26 27 28 29 30 31 32 33 34 35 36 37 38 39 40 41 42 43 44 45 46 47 48 49 50

000
NZUS59 KLOT 071908
HRRLOT

CHICAGO AREA WEATHER ROUNDUP
NATIONAL WEATHER SERVICE CHICAGO/ROMEOVILLE IL
100 PM CST SUN FEB 07 2016

NOTE: "FAIR" INDICATES FEW OR NO CLOUDS BELOW 12,000 FEET WITH NO
SIGNIFICANT WEATHER AND/OR OBSTRUCTIONS TO VISIBILITY.

* THESE STATIONS ARE NOT UNDER NWS QUALITY CONTROL. THEY ALSO MAY NOT
  REPORT WEATHER SUCH AS PRECIPITATION OR FOG.

ILZ005-006-012>014-019>023-072000-
NORTHEAST ILLINOIS

CITY           SKY/WX    TMP DP  RH WIND       PRES   REMARKS
OHARE          PTSUNNY   42  30  62 SW18G25   29.72F
MIDWAY         PTSUNNY   45  30  55 SW17      29.74F
AURORA         CLOUDY    42  32  67 SW16      29.76S
LANSING*       PTSUNNY   46  32  59 SW15G23   29.75F
JOLIET*        CLOUDY    46  33  60 W12G20    29.77S
WAUKEGAN       CLOUDY    40  30  67 SW15G26   29.69F
DUPAGE AIRPORT CLOUDY    42  30  62 SW18      29.74F
WHEELING       CLOUDY    42  30  62 W16G23    29.73F
KANKAKEE*      MOSUNNY   47  33  57 SW17G24   29.79F
MORRIS*          N/A     44  32  64 W17       29.75S
LEWIS AIRPORT* CLOUDY    43  32  64 W14       29.76S
$$

WIZ051-052-058>065-066-070>072-072000-
SOUTHEAST WISCONSIN

CITY           SKY/WX    TMP DP  RH WIND       PRES   REMARKS
MILWAUKEE      PTSUNNY   43  30  60 SW18      29.66F
KENOSHA*       PTSUNNY   41  31  67 SW17      29.68F
RACINE*        PTSUNNY   42  30  62 SW14      29.68F
BURLINGTON     CLOUDY    39  30  70 SW15      29.68F
WAUKESHA       SUNNY     39  30  70 SW13G21   29.66F
$$

INZ001>003-010>013-019-020-072000-
NORTHWEST INDIANA

CITY           SKY/WX    TMP DP  RH WIND       PRES   REMARKS
GARY*          PTSUNNY   46  28  49 SW23G35   29.75F
MICHIGAN CITY* NOT AVBL
RENSSELAER*    NOT AVBL
VALPARAISO     SUNNY     46  31  55 SW22G31   29.76F
$$

LMZ740>746-072000-
SOUTHERN LAKE MICHIGAN

STATION/POSITION TIME  SKY/WX   TEMP WIND        PRES    VSBY
                                AIR  DIR/SP/G
                 (UTC)          (F)  (DEG/KT/KT) (MB)    (MI)
HARRISON CRIB    1800            43  230/ 19/ 23   N/A
BURNHAM HARBOR   1900            44  260/  8/ 19   N/A
CALUMET HARBOR   1800            43  200/ 11/ 20 1006.9F
BURNS HARBOR     1800            43  230/ 19/ 28 1008.8F
MICHIGAN CITY    1800            43  190/ 22/ 24   N/A
$$

ABBREVIATIONS USED IN REMARKS
   TC - TEMPERATURE IN CELSIUS
  WCI - WIND CHILL INDEX
   HX - HEAT INDEX
  VSB - VISIBILITY
$$



USA.gov is the U.S. government's official web portal to all federal, state and local government web resources and services.